contact:dominique.lefevre@mio.osupytheas.fr, maurice.libes@osupytheas.fr, didier.mallarino@osupytheas.fr
Project:EMSO http://www.emso-fr.org/EMSO-France
Depth: 2436.0 m
Title:EMSO Ligure Ouest : Data MII capteur MICROCAT
DateTime_Computer,Latitude,Longitude,Temperature,Conductivity,Pressure,DateTime_Instrument
DateTime_Computer,Latitude,Longitude,degC,S m-1,dbar,DateTime_Instrument
2023-07-10T00:01:26Z,42.805,6.029,13.3027,4.60086,2470.847,2023-7-10T02:03:43Z
2023-07-10T00:04:30Z,42.805,6.029,13.3024,4.60087,2470.833,2023-7-10T02:06:46Z
2023-07-10T00:07:33Z,42.805,6.029,13.3023,4.60086,2470.847,2023-7-10T02:09:49Z
2023-07-10T00:10:36Z,42.805,6.029,13.3024,4.60087,2470.857,2023-7-10T02:12:52Z
2023-07-10T00:13:39Z,42.805,6.029,13.3027,4.60086,2470.81,2023-7-10T02:15:55Z
2023-07-10T00:16:42Z,42.805,6.029,13.3024,4.60085,2470.857,2023-7-10T02:18:58Z
2023-07-10T00:19:45Z,42.805,6.029,13.3024,4.60087,2470.847,2023-7-10T02:22:01Z
2023-07-10T00:22:48Z,42.805,6.029,13.3026,4.60087,2470.81,2023-7-10T02:25:04Z
2023-07-10T00:25:51Z,42.805,6.029,13.3024,4.60086,2470.857,2023-7-10T02:28:07Z
2023-07-10T00:28:54Z,42.805,6.029,13.3028,4.60089,2470.857,2023-7-10T02:31:10Z
2023-07-10T00:31:57Z,42.805,6.029,13.3022,4.60092,2470.833,2023-7-10T02:34:13Z
2023-07-10T00:35:00Z,42.805,6.029,13.3029,4.60087,2470.871,2023-7-10T02:37:17Z
2023-07-10T00:38:03Z,42.805,6.029,13.3025,4.60087,2470.857,2023-7-10T02:40:20Z
2023-07-10T00:41:07Z,42.805,6.029,13.3024,4.60087,2470.871,2023-7-10T02:43:23Z
2023-07-10T00:44:10Z,42.805,6.029,13.3026,4.60087,2470.857,2023-7-10T02:46:26Z
2023-07-10T00:47:13Z,42.805,6.029,13.3024,4.60087,2470.857,2023-7-10T02:49:29Z
2023-07-10T00:50:16Z,42.805,6.029,13.3026,4.60087,2470.833,2023-7-10T02:52:32Z
2023-07-10T00:53:19Z,42.805,6.029,13.3024,4.60087,2470.871,2023-7-10T02:55:35Z
2023-07-10T00:56:22Z,42.805,6.029,13.3024,4.60088,2470.824,2023-7-10T02:58:38Z
2023-07-10T00:59:25Z,42.805,6.029,13.3030,4.60087,2470.847,2023-7-10T03:01:41Z
2023-07-10T01:02:28Z,42.805,6.029,13.3027,4.60087,2470.81,2023-7-10T03:04:44Z
2023-07-10T01:05:31Z,42.805,6.029,13.3023,4.60089,2470.847,2023-7-10T03:07:47Z
2023-07-10T01:08:34Z,42.805,6.029,13.3027,4.60087,2470.857,2023-7-10T03:10:50Z
2023-07-10T01:11:37Z,42.805,6.029,13.3025,4.60087,2470.833,2023-7-10T03:13:54Z
2023-07-10T01:14:40Z,42.805,6.029,13.3025,4.60087,2470.857,2023-7-10T03:16:57Z
2023-07-10T01:17:44Z,42.805,6.029,13.3021,4.60087,2470.81,2023-7-10T03:20:00Z
2023-07-10T01:20:47Z,42.805,6.029,13.3027,4.60091,2470.8,2023-7-10T03:23:03Z
2023-07-10T01:23:50Z,42.805,6.029,13.3024,4.60086,2470.847,2023-7-10T03:26:06Z
2023-07-10T01:26:53Z,42.805,6.029,13.3027,4.60087,2470.857,2023-7-10T03:29:09Z
2023-07-10T01:29:56Z,42.805,6.029,13.3025,4.60092,2470.833,2023-7-10T03:32:12Z
2023-07-10T01:32:59Z,42.805,6.029,13.3027,4.60087,2470.857,2023-7-10T03:35:15Z
2023-07-10T01:36:02Z,42.805,6.029,13.3031,4.60086,2470.833,2023-7-10T03:38:18Z
2023-07-10T01:39:05Z,42.805,6.029,13.3026,4.60087,2470.833,2023-7-10T03:41:21Z
2023-07-10T01:42:08Z,42.805,6.029,13.3026,4.60091,2470.82,2023-7-10T03:44:24Z
2023-07-10T01:45:11Z,42.805,6.029,13.3023,4.60089,2470.833,2023-7-10T03:47:27Z
2023-07-10T01:48:14Z,42.805,6.029,13.3024,4.60089,2470.824,2023-7-10T03:50:31Z
2023-07-10T01:51:17Z,42.805,6.029,13.3028,4.60087,2470.833,2023-7-10T03:53:34Z
2023-07-10T01:54:21Z,42.805,6.029,13.3023,4.60087,2470.833,2023-7-10T03:56:37Z
2023-07-10T01:57:24Z,42.805,6.029,13.3025,4.60087,2470.833,2023-7-10T03:59:40Z
2023-07-10T02:00:27Z,42.805,6.029,13.3024,4.60093,2470.833,2023-7-10T04:02:43Z
2023-07-10T02:03:30Z,42.805,6.029,13.3026,4.60089,2470.824,2023-7-10T04:05:46Z
2023-07-10T02:06:33Z,42.805,6.029,13.3027,4.60087,2470.833,2023-7-10T04:08:49Z
2023-07-10T02:09:36Z,42.805,6.029,13.3027,4.60091,2470.8,2023-7-10T04:11:52Z
2023-07-10T02:12:39Z,42.805,6.029,13.3027,4.60088,2470.833,2023-7-10T04:14:55Z
2023-07-10T02:15:42Z,42.805,6.029,13.3024,4.60087,2470.824,2023-7-10T04:17:58Z
2023-07-10T02:18:45Z,42.805,6.029,13.3026,4.60088,2470.8,2023-7-10T04:21:01Z
2023-07-10T02:21:48Z,42.805,6.029,13.3025,4.60087,2470.81,2023-7-10T04:24:04Z
2023-07-10T02:24:51Z,42.805,6.029,13.3023,4.60087,2470.824,2023-7-10T04:27:08Z
2023-07-10T02:27:54Z,42.805,6.029,13.3027,4.60087,2470.833,2023-7-10T04:30:11Z
2023-07-10T02:30:58Z,42.805,6.029,13.3024,4.60092,2470.824,2023-7-10T04:33:14Z
2023-07-10T02:34:01Z,42.805,6.029,13.3025,4.60090,2470.777,2023-7-10T04:36:17Z
2023-07-10T02:37:04Z,42.805,6.029,13.3026,4.60087,2470.824,2023-7-10T04:39:20Z
2023-07-10T02:40:07Z,42.805,6.029,13.3026,4.60087,2470.824,2023-7-10T04:42:23Z
2023-07-10T02:43:10Z,42.805,6.029,13.3026,4.60087,2470.8,2023-7-10T04:45:26Z
2023-07-10T02:46:13Z,42.805,6.029,13.3029,4.60087,2470.796,2023-7-10T04:48:29Z
2023-07-10T02:49:16Z,42.805,6.029,13.3024,4.60087,2470.777,2023-7-10T04:51:32Z
2023-07-10T02:52:19Z,42.805,6.029,13.3025,4.60089,2470.81,2023-7-10T04:54:35Z
2023-07-10T02:55:22Z,42.805,6.029,13.3027,4.60089,2470.81,2023-7-10T04:57:38Z
2023-07-10T02:58:25Z,42.805,6.029,13.3025,4.60087,2470.8,2023-7-10T05:00:41Z
2023-07-10T03:01:28Z,42.805,6.029,13.3026,4.60088,2470.777,2023-7-10T05:03:45Z
2023-07-10T03:04:31Z,42.805,6.029,13.3029,4.60087,2470.763,2023-7-10T05:06:48Z
2023-07-10T03:07:34Z,42.805,6.029,13.3027,4.60086,2470.763,2023-7-10T05:09:51Z
2023-07-10T03:10:38Z,42.805,6.029,13.3027,4.60089,2470.763,2023-7-10T05:12:54Z
2023-07-10T03:13:41Z,42.805,6.029,13.3026,4.60090,2470.8,2023-7-10T05:15:57Z
2023-07-10T03:16:44Z,42.805,6.029,13.3027,4.60089,2470.81,2023-7-10T05:19:00Z
2023-07-10T03:19:47Z,42.805,6.029,13.3028,4.60093,2470.777,2023-7-10T05:22:03Z
2023-07-10T03:22:50Z,42.805,6.029,13.3026,4.60094,2470.777,2023-7-10T05:25:06Z
2023-07-10T03:25:53Z,42.805,6.029,13.3024,4.60087,2470.726,2023-7-10T05:28:09Z
2023-07-10T03:28:56Z,42.805,6.029,13.3027,4.60087,2470.777,2023-7-10T05:31:12Z
2023-07-10T03:31:59Z,42.805,6.029,13.3029,4.60088,2470.763,2023-7-10T05:34:15Z
2023-07-10T03:35:02Z,42.805,6.029,13.3025,4.60088,2470.787,2023-7-10T05:37:18Z
2023-07-10T03:38:05Z,42.805,6.029,13.3026,4.60088,2470.763,2023-7-10T05:40:21Z
2023-07-10T03:41:08Z,42.805,6.029,13.3028,4.60088,2470.8,2023-7-10T05:43:25Z
2023-07-10T03:44:11Z,42.805,6.029,13.3028,4.60088,2470.763,2023-7-10T05:46:28Z
2023-07-10T03:47:15Z,42.805,6.029,13.3028,4.60087,2470.763,2023-7-10T05:49:31Z
2023-07-10T03:50:18Z,42.805,6.029,13.3029,4.60087,2470.74,2023-7-10T05:52:34Z
2023-07-10T03:53:21Z,42.805,6.029,13.3024,4.60091,2470.763,2023-7-10T05:55:37Z
2023-07-10T03:56:24Z,42.805,6.029,13.3025,4.60091,2470.754,2023-7-10T05:58:40Z
2023-07-10T03:59:27Z,42.805,6.029,13.3030,4.60089,2470.754,2023-7-10T06:01:43Z
2023-07-10T04:02:30Z,42.805,6.029,13.3028,4.60089,2470.75,2023-7-10T06:04:46Z
2023-07-10T04:05:33Z,42.805,6.029,13.3030,4.60091,2470.74,2023-7-10T06:07:49Z
2023-07-10T04:08:36Z,42.805,6.029,13.3032,4.60093,2470.763,2023-7-10T06:10:52Z
2023-07-10T04:11:39Z,42.805,6.029,13.3027,4.60089,2470.763,2023-7-10T06:13:55Z
2023-07-10T04:14:42Z,42.805,6.029,13.3026,4.60089,2470.74,2023-7-10T06:16:59Z
2023-07-10T04:17:45Z,42.805,6.029,13.3027,4.60088,2470.74,2023-7-10T06:20:02Z
2023-07-10T04:20:48Z,42.805,6.029,13.3024,4.60088,2470.777,2023-7-10T06:23:05Z
2023-07-10T04:23:52Z,42.805,6.029,13.3029,4.60090,2470.763,2023-7-10T06:26:08Z
2023-07-10T04:26:55Z,42.805,6.029,13.3029,4.60097,2470.777,2023-7-10T06:29:11Z
2023-07-10T04:29:58Z,42.805,6.029,13.3026,4.60089,2470.74,2023-7-10T06:32:14Z
2023-07-10T04:33:01Z,42.805,6.029,13.3030,4.60089,2470.777,2023-7-10T06:35:17Z
2023-07-10T04:36:04Z,42.805,6.029,13.3029,4.60089,2470.74,2023-7-10T06:38:20Z
2023-07-10T04:39:07Z,42.805,6.029,13.3029,4.60089,2470.707,2023-7-10T06:41:23Z
2023-07-10T04:42:10Z,42.805,6.029,13.3031,4.60090,2470.74,2023-7-10T06:44:26Z
2023-07-10T04:45:13Z,42.805,6.029,13.3027,4.60091,2470.717,2023-7-10T06:47:29Z
2023-07-10T04:48:16Z,42.805,6.029,13.3028,4.60091,2470.717,2023-7-10T06:50:32Z
2023-07-10T04:51:19Z,42.805,6.029,13.3031,4.60091,2470.777,2023-7-10T06:53:35Z
2023-07-10T04:54:22Z,42.805,6.029,13.3027,4.60090,2470.74,2023-7-10T06:56:39Z
2023-07-10T04:57:25Z,42.805,6.029,13.3028,4.60091,2470.74,2023-7-10T06:59:42Z
2023-07-10T05:00:29Z,42.805,6.029,13.3026,4.60089,2470.717,2023-7-10T07:02:45Z
2023-07-10T05:03:32Z,42.805,6.029,13.3026,4.60088,2470.763,2023-7-10T07:05:48Z
2023-07-10T05:06:35Z,42.805,6.029,13.3029,4.60092,2470.777,2023-7-10T07:08:51Z
2023-07-10T05:09:38Z,42.805,6.029,13.3030,4.60090,2470.74,2023-7-10T07:11:54Z
2023-07-10T05:12:41Z,42.805,6.029,13.3029,4.60089,2470.693,2023-7-10T07:14:57Z
2023-07-10T05:15:44Z,42.805,6.029,13.3031,4.60102,2470.73,2023-7-10T07:18:00Z
2023-07-10T05:18:47Z,42.805,6.029,13.3029,4.60090,2470.754,2023-7-10T07:21:03Z
2023-07-10T05:21:50Z,42.805,6.029,13.3025,4.60089,2470.754,2023-7-10T07:24:06Z
2023-07-10T05:24:53Z,42.805,6.029,13.3029,4.60091,2470.707,2023-7-10T07:27:09Z
2023-07-10T05:27:56Z,42.805,6.029,13.3034,4.60090,2470.717,2023-7-10T07:30:12Z
2023-07-10T05:30:59Z,42.805,6.029,13.3031,4.60092,2470.67,2023-7-10T07:33:16Z
2023-07-10T05:34:02Z,42.805,6.029,13.3031,4.60092,2470.717,2023-7-10T07:36:19Z
2023-07-10T05:37:05Z,42.805,6.029,13.3029,4.60091,2470.693,2023-7-10T07:39:22Z
2023-07-10T05:40:09Z,42.805,6.029,13.3030,4.60092,2470.717,2023-7-10T07:42:25Z
2023-07-10T05:43:12Z,42.805,6.029,13.3029,4.60091,2470.74,2023-7-10T07:45:28Z
2023-07-10T05:46:15Z,42.805,6.029,13.3031,4.60092,2470.707,2023-7-10T07:48:31Z
2023-07-10T05:49:18Z,42.805,6.029,13.3032,4.60092,2470.684,2023-7-10T07:51:34Z
2023-07-10T05:52:21Z,42.805,6.029,13.3029,4.60092,2470.693,2023-7-10T07:54:37Z
2023-07-10T05:55:24Z,42.805,6.029,13.3031,4.60093,2470.707,2023-7-10T07:57:40Z
2023-07-10T05:58:27Z,42.805,6.029,13.3029,4.60093,2470.693,2023-7-10T08:00:43Z
2023-07-10T06:01:30Z,42.805,6.029,13.3029,4.60094,2470.693,2023-7-10T08:03:46Z
2023-07-10T06:04:33Z,42.805,6.029,13.3032,4.60092,2470.707,2023-7-10T08:06:49Z
2023-07-10T06:07:36Z,42.805,6.029,13.3031,4.60092,2470.693,2023-7-10T08:09:53Z
2023-07-10T06:10:39Z,42.805,6.029,13.3030,4.60094,2470.707,2023-7-10T08:12:56Z
2023-07-10T06:13:42Z,42.805,6.029,13.3034,4.60097,2470.693,2023-7-10T08:15:59Z
2023-07-10T06:16:46Z,42.805,6.029,13.3033,4.60094,2470.693,2023-7-10T08:19:02Z
2023-07-10T06:19:49Z,42.805,6.029,13.3032,4.60093,2470.633,2023-7-10T08:22:05Z
2023-07-10T06:22:52Z,42.805,6.029,13.3031,4.60093,2470.693,2023-7-10T08:25:08Z
2023-07-10T06:25:55Z,42.805,6.029,13.3031,4.60094,2470.717,2023-7-10T08:28:11Z
2023-07-10T06:28:58Z,42.805,6.029,13.3031,4.60092,2470.684,2023-7-10T08:31:14Z
2023-07-10T06:32:00Z,42.805,6.029,13.3031,4.60092,2470.67,2023-7-10T08:34:16Z
2023-07-10T06:35:03Z,42.805,6.029,13.3031,4.60092,2470.67,2023-7-10T08:37:19Z
2023-07-10T06:38:06Z,42.805,6.029,13.3031,4.60094,2470.684,2023-7-10T08:40:22Z
2023-07-10T06:41:09Z,42.805,6.029,13.3031,4.60092,2470.67,2023-7-10T08:43:25Z
2023-07-10T06:44:12Z,42.805,6.029,13.3029,4.60092,2470.67,2023-7-10T08:46:28Z
2023-07-10T06:47:15Z,42.805,6.029,13.3034,4.60093,2470.684,2023-7-10T08:49:32Z
2023-07-10T06:50:18Z,42.805,6.029,13.3029,4.60093,2470.646,2023-7-10T08:52:35Z
2023-07-10T06:53:22Z,42.805,6.029,13.3029,4.60097,2470.693,2023-7-10T08:55:38Z
2023-07-10T06:56:25Z,42.805,6.029,13.3034,4.60093,2470.67,2023-7-10T08:58:41Z
2023-07-10T06:59:28Z,42.805,6.029,13.3032,4.60094,2470.684,2023-7-10T09:01:44Z
2023-07-10T07:02:31Z,42.805,6.029,13.3030,4.60092,2470.698,2023-7-10T09:04:47Z
2023-07-10T07:05:34Z,42.805,6.029,13.3034,4.60101,2470.693,2023-7-10T09:07:50Z
2023-07-10T07:08:37Z,42.805,6.029,13.3030,4.60093,2470.646,2023-7-10T09:10:53Z
2023-07-10T07:11:40Z,42.805,6.029,13.3031,4.60093,2470.67,2023-7-10T09:13:56Z
2023-07-10T07:14:43Z,42.805,6.029,13.3030,4.60092,2470.693,2023-7-10T09:16:59Z
2023-07-10T07:17:46Z,42.805,6.029,13.3031,4.60092,2470.633,2023-7-10T09:20:02Z
2023-07-10T07:20:49Z,42.805,6.029,13.3030,4.60091,2470.693,2023-7-10T09:23:06Z
2023-07-10T07:23:52Z,42.805,6.029,13.3031,4.60090,2470.684,2023-7-10T09:26:09Z
2023-07-10T07:26:55Z,42.805,6.029,13.3026,4.60089,2470.646,2023-7-10T09:29:12Z
2023-07-10T07:29:59Z,42.805,6.029,13.3029,4.60090,2470.646,2023-7-10T09:32:15Z
2023-07-10T07:33:02Z,42.805,6.029,13.3028,4.60089,2470.67,2023-7-10T09:35:18Z
2023-07-10T07:36:05Z,42.805,6.029,13.3031,4.60093,2470.67,2023-7-10T09:38:21Z
2023-07-10T07:39:08Z,42.805,6.029,13.3027,4.60092,2470.656,2023-7-10T09:41:24Z
2023-07-10T07:42:11Z,42.805,6.029,13.3034,4.60090,2470.624,2023-7-10T09:44:27Z
2023-07-10T07:45:14Z,42.805,6.029,13.3033,4.60088,2470.67,2023-7-10T09:47:30Z
2023-07-10T07:48:17Z,42.805,6.029,13.3033,4.60089,2470.646,2023-7-10T09:50:33Z
2023-07-10T07:51:20Z,42.805,6.029,13.3030,4.60088,2470.637,2023-7-10T09:53:36Z
2023-07-10T07:54:23Z,42.805,6.029,13.3028,4.60089,2470.661,2023-7-10T09:56:39Z
2023-07-10T07:57:26Z,42.805,6.029,13.3032,4.60089,2470.717,2023-7-10T09:59:43Z
2023-07-10T08:00:29Z,42.805,6.029,13.3031,4.60089,2470.646,2023-7-10T10:02:46Z
2023-07-10T08:03:32Z,42.805,6.029,13.3028,4.60089,2470.646,2023-7-10T10:05:49Z
2023-07-10T08:06:36Z,42.805,6.029,13.3029,4.60092,2470.656,2023-7-10T10:08:52Z
2023-07-10T08:09:39Z,42.805,6.029,13.3027,4.60090,2470.67,2023-7-10T10:11:55Z
2023-07-10T08:12:42Z,42.805,6.029,13.3031,4.60092,2470.67,2023-7-10T10:14:58Z
2023-07-10T08:15:45Z,42.805,6.029,13.3030,4.60089,2470.661,2023-7-10T10:18:01Z
2023-07-10T08:18:48Z,42.805,6.029,13.3029,4.60090,2470.67,2023-7-10T10:21:04Z
2023-07-10T08:21:51Z,42.805,6.029,13.3026,4.60092,2470.67,2023-7-10T10:24:07Z
2023-07-10T08:24:54Z,42.805,6.029,13.3031,4.60091,2470.661,2023-7-10T10:27:10Z
2023-07-10T08:27:57Z,42.805,6.029,13.3031,4.60093,2470.661,2023-7-10T10:30:13Z
2023-07-10T08:30:59Z,42.805,6.029,13.3031,4.60090,2470.693,2023-7-10T10:33:15Z
2023-07-10T08:34:02Z,42.805,6.029,13.3034,4.60092,2470.646,2023-7-10T10:36:18Z
2023-07-10T08:37:05Z,42.805,6.029,13.3029,4.60099,2470.661,2023-7-10T10:39:21Z
2023-07-10T08:40:08Z,42.805,6.029,13.3029,4.60099,2470.684,2023-7-10T10:42:24Z
2023-07-10T08:43:11Z,42.805,6.029,13.3029,4.60092,2470.646,2023-7-10T10:45:27Z
2023-07-10T08:46:14Z,42.805,6.029,13.3033,4.60090,2470.624,2023-7-10T10:48:30Z
2023-07-10T08:49:17Z,42.805,6.029,13.3029,4.60088,2470.661,2023-7-10T10:51:33Z
2023-07-10T08:52:20Z,42.805,6.029,13.3030,4.60087,2470.646,2023-7-10T10:54:36Z
2023-07-10T08:55:23Z,42.805,6.029,13.3027,4.60089,2470.661,2023-7-10T10:57:39Z
2023-07-10T08:58:26Z,42.805,6.029,13.3031,4.60088,2470.67,2023-7-10T11:00:43Z
2023-07-10T09:01:29Z,42.805,6.029,13.3026,4.60088,2470.684,2023-7-10T11:03:46Z
2023-07-10T09:04:33Z,42.805,6.029,13.3027,4.60087,2470.67,2023-7-10T11:06:49Z
2023-07-10T09:07:36Z,42.805,6.029,13.3028,4.60088,2470.67,2023-7-10T11:09:52Z
2023-07-10T09:10:39Z,42.805,6.029,13.3029,4.60088,2470.67,2023-7-10T11:12:55Z
2023-07-10T09:13:42Z,42.805,6.029,13.3026,4.60087,2470.661,2023-7-10T11:15:58Z
2023-07-10T09:16:45Z,42.805,6.029,13.3029,4.60087,2470.67,2023-7-10T11:19:01Z
2023-07-10T09:19:48Z,42.805,6.029,13.3024,4.60094,2470.633,2023-7-10T11:22:04Z
2023-07-10T09:22:51Z,42.805,6.029,13.3029,4.60089,2470.661,2023-7-10T11:25:07Z
2023-07-10T09:25:54Z,42.805,6.029,13.3029,4.60090,2470.693,2023-7-10T11:28:10Z
2023-07-10T09:28:57Z,42.805,6.029,13.3023,4.60092,2470.67,2023-7-10T11:31:13Z
2023-07-10T09:32:00Z,42.805,6.029,13.3027,4.60088,2470.684,2023-7-10T11:34:17Z
2023-07-10T09:35:03Z,42.805,6.029,13.3031,4.60090,2470.693,2023-7-10T11:37:20Z
2023-07-10T09:38:06Z,42.805,6.029,13.3027,4.60087,2470.693,2023-7-10T11:40:23Z
2023-07-10T09:41:10Z,42.805,6.029,13.3030,4.60088,2470.646,2023-7-10T11:43:26Z
2023-07-10T09:44:13Z,42.805,6.029,13.3031,4.60088,2470.707,2023-7-10T11:46:29Z
2023-07-10T09:47:16Z,42.805,6.029,13.3025,4.60087,2470.693,2023-7-10T11:49:32Z
2023-07-10T09:50:19Z,42.805,6.029,13.3029,4.60087,2470.67,2023-7-10T11:52:35Z
2023-07-10T09:53:22Z,42.805,6.029,13.3026,4.60090,2470.67,2023-7-10T11:55:38Z
2023-07-10T09:56:25Z,42.805,6.029,13.3029,4.60085,2470.73,2023-7-10T11:58:41Z
2023-07-10T09:59:28Z,42.805,6.029,13.3026,4.60087,2470.693,2023-7-10T12:01:44Z
2023-07-10T10:02:31Z,42.805,6.029,13.3026,4.60086,2470.707,2023-7-10T12:04:47Z
2023-07-10T10:05:34Z,42.805,6.029,13.3029,4.60086,2470.67,2023-7-10T12:07:50Z
2023-07-10T10:08:37Z,42.805,6.029,13.3028,4.60087,2470.693,2023-7-10T12:10:54Z
2023-07-10T10:11:40Z,42.805,6.029,13.3031,4.60087,2470.684,2023-7-10T12:13:57Z
2023-07-10T10:14:44Z,42.805,6.029,13.3029,4.60087,2470.707,2023-7-10T12:17:00Z
2023-07-10T10:17:47Z,42.805,6.029,13.3026,4.60085,2470.717,2023-7-10T12:20:03Z
2023-07-10T10:20:50Z,42.805,6.029,13.3028,4.60086,2470.693,2023-7-10T12:23:06Z
2023-07-10T10:23:53Z,42.805,6.029,13.3026,4.60087,2470.73,2023-7-10T12:26:09Z
2023-07-10T10:26:56Z,42.805,6.029,13.3029,4.60086,2470.73,2023-7-10T12:29:12Z
2023-07-10T10:29:59Z,42.805,6.029,13.3024,4.60087,2470.717,2023-7-10T12:32:15Z
2023-07-10T10:33:02Z,42.805,6.029,13.3029,4.60085,2470.707,2023-7-10T12:35:18Z
2023-07-10T10:36:05Z,42.805,6.029,13.3028,4.60085,2470.717,2023-7-10T12:38:21Z
2023-07-10T10:39:08Z,42.805,6.029,13.3024,4.60085,2470.717,2023-7-10T12:41:24Z
2023-07-10T10:42:11Z,42.805,6.029,13.3026,4.60086,2470.693,2023-7-10T12:44:28Z
2023-07-10T10:45:14Z,42.805,6.029,13.3026,4.60087,2470.73,2023-7-10T12:47:31Z
2023-07-10T10:48:17Z,42.805,6.029,13.3023,4.60085,2470.717,2023-7-10T12:50:34Z
2023-07-10T10:51:21Z,42.805,6.029,13.3028,4.60084,2470.717,2023-7-10T12:53:37Z
2023-07-10T10:54:24Z,42.805,6.029,13.3027,4.60086,2470.74,2023-7-10T12:56:40Z
2023-07-10T10:57:27Z,42.805,6.029,13.3025,4.60085,2470.717,2023-7-10T12:59:43Z
2023-07-10T11:00:30Z,42.805,6.029,13.3026,4.60085,2470.693,2023-7-10T13:02:46Z
2023-07-10T11:03:33Z,42.805,6.029,13.3026,4.60085,2470.74,2023-7-10T13:05:49Z
2023-07-10T11:06:36Z,42.805,6.029,13.3025,4.60086,2470.763,2023-7-10T13:08:52Z
2023-07-10T11:09:39Z,42.805,6.029,13.3026,4.60087,2470.717,2023-7-10T13:11:55Z
2023-07-10T11:12:42Z,42.805,6.029,13.3028,4.60085,2470.74,2023-7-10T13:14:58Z
2023-07-10T11:15:45Z,42.805,6.029,13.3022,4.60085,2470.754,2023-7-10T13:18:02Z
2023-07-10T11:18:48Z,42.805,6.029,13.3031,4.60087,2470.717,2023-7-10T13:21:05Z
2023-07-10T11:21:51Z,42.805,6.029,13.3026,4.60086,2470.73,2023-7-10T13:24:08Z
2023-07-10T11:24:55Z,42.805,6.029,13.3026,4.60086,2470.74,2023-7-10T13:27:11Z
2023-07-10T11:27:58Z,42.805,6.029,13.3031,4.60085,2470.717,2023-7-10T13:30:14Z
2023-07-10T11:31:01Z,42.805,6.029,13.3026,4.60087,2470.754,2023-7-10T13:33:17Z
2023-07-10T11:34:04Z,42.805,6.029,13.3028,4.60087,2470.73,2023-7-10T13:36:20Z
2023-07-10T11:37:07Z,42.805,6.029,13.3029,4.60087,2470.74,2023-7-10T13:39:23Z
2023-07-10T11:40:10Z,42.805,6.029,13.3028,4.60085,2470.717,2023-7-10T13:42:26Z
2023-07-10T11:43:13Z,42.805,6.029,13.3026,4.60086,2470.717,2023-7-10T13:45:29Z
2023-07-10T11:46:16Z,42.805,6.029,13.3029,4.60087,2470.74,2023-7-10T13:48:32Z
2023-07-10T11:49:19Z,42.805,6.029,13.3031,4.60085,2470.787,2023-7-10T13:51:36Z
2023-07-10T11:52:22Z,42.805,6.029,13.3026,4.60092,2470.73,2023-7-10T13:54:39Z
2023-07-10T11:55:25Z,42.805,6.029,13.3029,4.60086,2470.73,2023-7-10T13:57:42Z
2023-07-10T11:58:29Z,42.805,6.029,13.3026,4.60087,2470.74,2023-7-10T14:00:45Z
2023-07-10T12:01:32Z,42.805,6.029,13.3024,4.60087,2470.717,2023-7-10T14:03:48Z
2023-07-10T12:04:35Z,42.805,6.029,13.3029,4.60087,2470.74,2023-7-10T14:06:51Z
2023-07-10T12:07:38Z,42.805,6.029,13.3026,4.60088,2470.74,2023-7-10T14:09:54Z
2023-07-10T12:10:41Z,42.805,6.029,13.3027,4.60087,2470.777,2023-7-10T14:12:57Z
2023-07-10T12:13:44Z,42.805,6.029,13.3031,4.60097,2470.754,2023-7-10T14:16:00Z
2023-07-10T12:16:47Z,42.805,6.029,13.3025,4.60087,2470.763,2023-7-10T14:19:03Z
2023-07-10T12:19:50Z,42.805,6.029,13.3025,4.60087,2470.74,2023-7-10T14:22:06Z
2023-07-10T12:22:53Z,42.805,6.029,13.3026,4.60087,2470.74,2023-7-10T14:25:09Z
2023-07-10T12:25:56Z,42.805,6.029,13.3029,4.60087,2470.777,2023-7-10T14:28:13Z
2023-07-10T12:28:59Z,42.805,6.029,13.3024,4.60089,2470.777,2023-7-10T14:31:16Z
2023-07-10T12:32:04Z,42.805,6.029,13.3021,4.60087,2470.74,2023-7-10T14:34:20Z
2023-07-10T12:35:07Z,42.805,6.029,13.3024,4.60087,2470.74,2023-7-10T14:37:23Z
2023-07-10T12:38:10Z,42.805,6.029,13.3026,4.60087,2470.726,2023-7-10T14:40:27Z
2023-07-10T12:41:13Z,42.805,6.029,13.3026,4.60087,2470.74,2023-7-10T14:43:30Z
2023-07-10T12:44:16Z,42.805,6.029,13.3026,4.60086,2470.74,2023-7-10T14:46:33Z
2023-07-10T12:47:20Z,42.805,6.029,13.3028,4.60087,2470.74,2023-7-10T14:49:36Z
2023-07-10T12:50:23Z,42.805,6.029,13.3024,4.60086,2470.763,2023-7-10T14:52:39Z
2023-07-10T12:53:26Z,42.805,6.029,13.3029,4.60086,2470.74,2023-7-10T14:55:42Z
2023-07-10T12:56:29Z,42.805,6.029,13.3026,4.60087,2470.763,2023-7-10T14:58:45Z
2023-07-10T12:59:32Z,42.805,6.029,13.3028,4.60087,2470.754,2023-7-10T15:01:48Z
2023-07-10T13:02:35Z,42.805,6.029,13.3032,4.60088,2470.754,2023-7-10T15:04:51Z
2023-07-10T13:05:38Z,42.805,6.029,13.3029,4.60087,2470.777,2023-7-10T15:07:54Z
2023-07-10T13:08:41Z,42.805,6.029,13.3026,4.60086,2470.717,2023-7-10T15:10:57Z
2023-07-10T13:11:44Z,42.805,6.029,13.3026,4.60089,2470.74,2023-7-10T15:14:00Z
2023-07-10T13:14:47Z,42.805,6.029,13.3026,4.60087,2470.74,2023-7-10T15:17:04Z
2023-07-10T13:17:50Z,42.805,6.029,13.3029,4.60088,2470.754,2023-7-10T15:20:07Z
2023-07-10T13:20:53Z,42.805,6.029,13.3026,4.60087,2470.74,2023-7-10T15:23:10Z
2023-07-10T13:23:57Z,42.805,6.029,13.3027,4.60088,2470.717,2023-7-10T15:26:13Z
2023-07-10T13:27:00Z,42.805,6.029,13.3028,4.60087,2470.707,2023-7-10T15:29:16Z
2023-07-10T13:30:03Z,42.805,6.029,13.3026,4.60087,2470.717,2023-7-10T15:32:19Z
2023-07-10T13:33:06Z,42.805,6.029,13.3030,4.60087,2470.74,2023-7-10T15:35:22Z
2023-07-10T13:36:09Z,42.805,6.029,13.3029,4.60087,2470.74,2023-7-10T15:38:25Z
2023-07-10T13:39:12Z,42.805,6.029,13.3029,4.60092,2470.73,2023-7-10T15:41:28Z
2023-07-10T13:42:15Z,42.805,6.029,13.3028,4.60086,2470.777,2023-7-10T15:44:31Z
2023-07-10T13:45:18Z,42.805,6.029,13.3026,4.60087,2470.717,2023-7-10T15:47:34Z
2023-07-10T13:48:21Z,42.805,6.029,13.3029,4.60087,2470.73,2023-7-10T15:50:37Z
2023-07-10T13:51:24Z,42.805,6.029,13.3029,4.60087,2470.74,2023-7-10T15:53:41Z
2023-07-10T13:54:27Z,42.805,6.029,13.3029,4.60087,2470.74,2023-7-10T15:56:44Z
2023-07-10T13:57:31Z,42.805,6.029,13.3026,4.60087,2470.693,2023-7-10T15:59:47Z
2023-07-10T14:00:34Z,42.805,6.029,13.3029,4.60087,2470.693,2023-7-10T16:02:50Z
2023-07-10T14:03:37Z,42.805,6.029,13.3026,4.60087,2470.763,2023-7-10T16:05:53Z
2023-07-10T14:06:40Z,42.805,6.029,13.3026,4.60087,2470.717,2023-7-10T16:08:56Z
2023-07-10T14:09:43Z,42.805,6.029,13.3031,4.60087,2470.777,2023-7-10T16:11:59Z
2023-07-10T14:12:46Z,42.805,6.029,13.3026,4.60087,2470.74,2023-7-10T16:15:02Z
2023-07-10T14:15:49Z,42.805,6.029,13.3026,4.60087,2470.74,2023-7-10T16:18:05Z
2023-07-10T14:18:52Z,42.805,6.029,13.3030,4.60089,2470.73,2023-7-10T16:21:08Z
2023-07-10T14:21:55Z,42.805,6.029,13.3026,4.60091,2470.726,2023-7-10T16:24:11Z
2023-07-10T14:24:58Z,42.805,6.029,13.3026,4.60088,2470.717,2023-7-10T16:27:15Z
2023-07-10T14:28:01Z,42.805,6.029,13.3030,4.60095,2470.707,2023-7-10T16:30:18Z
2023-07-10T14:31:04Z,42.805,6.029,13.3026,4.60089,2470.693,2023-7-10T16:33:20Z
2023-07-10T14:34:07Z,42.805,6.029,13.3032,4.60089,2470.707,2023-7-10T16:36:23Z
2023-07-10T14:37:10Z,42.805,6.029,13.3029,4.60089,2470.717,2023-7-10T16:39:26Z
2023-07-10T14:40:13Z,42.805,6.029,13.3026,4.60089,2470.707,2023-7-10T16:42:29Z
2023-07-10T14:43:16Z,42.805,6.029,13.3028,4.60092,2470.707,2023-7-10T16:45:32Z
2023-07-10T14:46:19Z,42.805,6.029,13.3028,4.60089,2470.693,2023-7-10T16:48:36Z
2023-07-10T14:49:22Z,42.805,6.029,13.3029,4.60089,2470.74,2023-7-10T16:51:39Z
2023-07-10T14:52:25Z,42.805,6.029,13.3024,4.60095,2470.693,2023-7-10T16:54:42Z
2023-07-10T14:55:29Z,42.805,6.029,13.3023,4.60089,2470.717,2023-7-10T16:57:45Z
2023-07-10T14:58:32Z,42.805,6.029,13.3030,4.60089,2470.73,2023-7-10T17:00:48Z
2023-07-10T15:01:35Z,42.805,6.029,13.3029,4.60089,2470.73,2023-7-10T17:03:51Z
2023-07-10T15:04:38Z,42.805,6.029,13.3027,4.60089,2470.717,2023-7-10T17:06:54Z
2023-07-10T15:07:41Z,42.805,6.029,13.3029,4.60090,2470.717,2023-7-10T17:09:57Z
2023-07-10T15:10:44Z,42.805,6.029,13.3027,4.60090,2470.717,2023-7-10T17:13:00Z
2023-07-10T15:13:47Z,42.805,6.029,13.3026,4.60090,2470.717,2023-7-10T17:16:03Z